TimeCEST,TemperatureF,Dew PointF,Humidity,Sea Level PressureIn,VisibilityMPH,Wind Direction,Wind SpeedMPH,Gust SpeedMPH,PrecipitationIn,Events,Conditions,WindDirDegrees,DateUTC
12:00 AM,60.8,53.6,77,30.24,-9999.0,ENE,20.7,-,N/A,,Clear,70,2013-08-19 22:00:00
12:30 AM,60.8,53.6,77,30.24,-9999.0,ENE,20.7,-,N/A,,Clear,70,2013-08-19 22:30:00
1:00 AM,59.0,53.6,82,30.27,-9999.0,ENE,17.3,-,N/A,,Clear,70,2013-08-19 23:00:00
1:30 AM,59.0,53.6,82,30.27,-9999.0,ENE,15.0,-,N/A,,Clear,70,2013-08-19 23:30:00
2:00 AM,59.0,51.8,77,30.27,-9999.0,ENE,13.8,-,N/A,,Clear,70,2013-08-20 00:00:00
2:30 AM,57.2,51.8,82,30.27,-9999.0,ENE,11.5,-,N/A,,Clear,70,2013-08-20 00:30:00
3:00 AM,57.2,51.8,82,30.27,-9999.0,ENE,13.8,-,N/A,,Clear,70,2013-08-20 01:00:00
3:30 AM,57.2,50.0,77,30.27,-9999.0,ENE,13.8,-,N/A,,Clear,70,2013-08-20 01:30:00
7:00 AM,53.6,48.2,82,30.24,-9999.0,ENE,9.2,-,N/A,,Clear,70,2013-08-20 05:00:00
7:30 AM,53.6,50.0,88,30.24,-9999.0,NE,11.5,-,N/A,,Clear,50,2013-08-20 05:30:00
8:00 AM,53.6,50.0,88,30.27,-9999.0,NE,10.4,-,N/A,,Clear,50,2013-08-20 06:00:00
8:30 AM,55.4,48.2,77,30.27,-9999.0,ENE,8.1,-,N/A,,Clear,60,2013-08-20 06:30:00
9:00 AM,57.2,50.0,77,30.27,-9999.0,ENE,9.2,-,N/A,,Clear,60,2013-08-20 07:00:00
9:30 AM,59.0,50.0,72,30.27,-9999.0,East,10.4,-,N/A,,Clear,80,2013-08-20 07:30:00
10:00 AM,60.8,50.0,68,30.27,-9999.0,ENE,11.5,-,N/A,,Clear,60,2013-08-20 08:00:00
10:30 AM,62.6,50.0,63,30.27,-9999.0,ENE,10.4,-,N/A,,Clear,70,2013-08-20 08:30:00
11:00 AM,66.2,50.0,56,30.27,-9999.0,East,8.1,-,N/A,,Clear,80,2013-08-20 09:00:00
11:30 AM,68.0,51.8,56,30.27,-9999.0,East,6.9,-,N/A,,Clear,80,2013-08-20 09:30:00
12:00 PM,69.8,50.0,49,30.27,-9999.0,ENE,5.8,-,N/A,,Clear,70,2013-08-20 10:00:00
12:30 PM,73.4,46.4,38,30.27,-9999.0,ENE,5.8,-,N/A,,Clear,70,2013-08-20 10:30:00
1:00 PM,75.2,44.6,34,30.24,-9999.0,East,4.6,-,N/A,,Clear,80,2013-08-20 11:00:00
1:30 PM,77.0,39.2,26,30.24,-9999.0,ENE,5.8,-,N/A,,Clear,60,2013-08-20 11:30:00
2:00 PM,80.6,39.2,23,30.24,-9999.0,ENE,5.8,-,N/A,,Clear,70,2013-08-20 12:00:00
2:30 PM,82.4,37.4,20,30.24,-9999.0,East,5.8,-,N/A,,Clear,80,2013-08-20 12:30:00
3:00 PM,84.2,35.6,18,30.21,-9999.0,East,6.9,-,N/A,,Clear,80,2013-08-20 13:00:00
3:30 PM,86.0,39.2,19,30.21,-9999.0,NE,4.6,-,N/A,,Clear,50,2013-08-20 13:30:00
4:00 PM,86.0,41.0,20,30.21,-9999.0,NE,4.6,-,N/A,,Clear,50,2013-08-20 14:00:00
4:30 PM,87.8,42.8,21,30.18,-9999.0,East,3.5,-,N/A,,Clear,90,2013-08-20 14:30:00
5:00 PM,87.8,42.8,21,30.18,-9999.0,North,3.5,-,N/A,,Clear,10,2013-08-20 15:00:00
5:30 PM,87.8,44.6,22,30.18,-9999.0,ENE,3.5,-,N/A,,Clear,60,2013-08-20 15:30:00
6:00 PM,89.6,42.8,20,30.18,-9999.0,NE,4.6,-,N/A,,Clear,50,2013-08-20 16:00:00
6:30 PM,87.8,42.8,21,30.15,-9999.0,ENE,4.6,-,N/A,,Clear,60,2013-08-20 16:30:00
7:00 PM,87.8,44.6,22,30.15,-9999.0,NNE,3.5,-,N/A,,Clear,20,2013-08-20 17:00:00
7:30 PM,87.8,42.8,21,30.15,-9999.0,North,5.8,-,N/A,,Clear,360,2013-08-20 17:30:00
8:00 PM,86.0,41.0,20,30.15,-9999.0,NNE,6.9,-,N/A,,Clear,30,2013-08-20 18:00:00
8:30 PM,84.2,41.0,22,30.15,-9999.0,NNE,8.1,-,N/A,,Clear,30,2013-08-20 18:30:00
9:00 PM,80.6,41.0,24,30.18,-9999.0,NNE,6.9,-,N/A,,Clear,30,2013-08-20 19:00:00
9:30 PM,73.4,39.2,29,30.18,-9999.0,NE,8.1,-,N/A,,Clear,40,2013-08-20 19:30:00